User: anonymous   Login
Location: Unspecified
(0.0000°N, 0.0000°E)
Time: 14:03:14
(UTC+00:00)
Language:

S-56A Canister/Altair - Orbit

View from above orbital plane
View from above orbital plane
View from above satellite
View from above satellite

Ground track
Ground track

The orbit data is extracted from the following two-line orbital elements,

1 00082U 61004B   21212.80551648 -.00000121  00000-0 -72507-4 0  9997
2 00082  38.8646 122.6028 1176605 259.2234  87.4107 12.26028738858053
Epoch (UTC): 31 July 2021 19:19:56
Eccentricity: 0.1176605
inclination: 38.8646°
perigee height: 631 km
apogee height: 2501 km
right ascension of ascending node: 122.6028°
argument of perigee: 259.2234°
revolutions per day: 12.26028738
mean anomaly at epoch: 87.4107°
orbit number at epoch: 85805

The dashed part of the orbit path shows where the satellite is in the earth's shadow,  

DLR